Location: Adrasan
(36.3319°N, 30.4314°E)
Time: 09:46:54
(UTC+00:00)

Meteor 1-10 Rocket - Pass Details

Date: 25 May 2024
Orbit: 834 x 910 km, 81.3° (Epoch: 16 June)

Event Time Altitude Azimuth Distance (km) Brightness Sun altitude
Exits shadow 18:00:40 12° 136° (SE) 2,349 5.9 -10.2°
Maximum altitude 18:04:32 24° 89° (E) 1,723 5.4 -10.8°
Drops below altitude 10° 18:08:56 10° 37° (NE) 2,494 6.7 -11.5°
Sets 18:11:46 0° 24° (NNE) 3,423 7.5 -12.0°
